Regional Weather Roundup
Issued by NWS

Home | Current Version | Previous Version | Graphics & Text | Print | Product List | Glossary Off
Versions: 1 2 3 4 5 6 7 8 9 10 11 12 13 14 15 16 17 18 19 20 21 22 23 24 25 26 27 28 29 30 31 32 33 34 35 36 37 38 39 40 41 42 43 44 45 46 47 48

000
ASUS43 KDMX 221807
RWRIA

WEATHER ROUNDUP FOR IOWA
NATIONAL WEATHER SERVICE DES MOINES IA
1200 PM CST SAT NOV 22 2014

NOTE: "FAIR" INDICATES FEW OR NO CLOUDS BELOW 12,000 FEET WITH NO
SIGNIFICANT WEATHER AND/OR OBSTRUCTIONS TO VISIBILITY.

* - THESE STATIONS ARE NOT NWS STATIONS...THUS NOT UNDER NWS
QUALITY CONTROL.  THEY ALSO DO NOT REPORT WEATHER SUCH
AS PRECIPITATION OR FOG.

IAZ001>003-012>014-020>022-031>034-043>046-221900-
   NORTHWEST IOWA

CITY           SKY/WX    TMP DP  RH WIND       PRES   REMARKS
CARROLL *      CLOUDY    41  41 100 S18       29.77F FOG
CHEROKEE *     CLOUDY    38  38 100 S9        29.73F FOG     WCI  31
DENISON *      CLOUDY    39  39 100 SW18G24   29.76F FOG     WCI  30
LE MARS *      CLOUDY    37  36  93 S14G20    29.72F FOG     WCI  29
ORANGE CITY *  CLOUDY    37  36  93 S14       29.70F FOG     WCI  29
SHELDON *      FOG       36  36 100 S14       29.69F VSB 3/4 WCI  27
SIOUX CITY     CLOUDY    41  36  82 S14       29.75F
6HR MIN TEMP:  38; 6HR MAX TEMP:  41;

SPENCER        CLOUDY    36  35  96 SW13      29.72F FOG     WCI  27
6HR MIN TEMP:  35; 6HR MAX TEMP:  36;

STORM LAKE *   CLOUDY    39  37  93 SW22      29.74F FOG     WCI  29
$$

IAZ055>058-069>071-079>083-090>094-221900-
   SOUTHWEST IOWA

CITY           SKY/WX    TMP DP  RH WIND       PRES   REMARKS
ATLANTIC *     CLOUDY    41  41 100 S20       29.81F FOG
AUDUBON *      CLOUDY    41  37  87 S15G22    29.80F FOG
CLARINDA *     CLOUDY    52  46  82 S15G21    29.84F
COUNCIL BLFS * CLOUDY    41  41 100 S15G22    29.79F FOG
CRESTON *      CLOUDY    48  48 100 SW18G25   29.82F FOG
HARLAN  *      FOG       41  41 100 S20       29.82F VSB 3/4
LAMONI         FOG       48  48 100 S9        29.84F VSB 1/4
6HR MIN TEMP:  42; 6HR MAX TEMP:  48;

RED OAK *      CLOUDY    45  43  93 SW13G18   29.82F
SHENANDOAH *   SUNNY     50  43  76 SW14      29.83F
$$

IAZ047>049-059>061-072>074-084-221900-
   CENTRAL IOWA

CITY           SKY/WX    TMP DP  RH WIND       PRES   REMARKS
AMES           CLOUDY    46  40  79 SW17      29.81F
6HR MIN TEMP:  36; 6HR MAX TEMP:  47;

ANKENY *       MOSUNNY   48  43  81 S18       29.81F
CHARITON *     CLOUDY    48  48 100 SW10      29.84F FOG
DES MOINES     CLOUDY    49  43  80 SW14      29.81F
6HR MIN TEMP:  39; 6HR MAX TEMP:  49; 6HR PCP: TRACE;

GRINNELL*      PTSUNNY   48  45  87 SW16G29   29.83F
KNOXVILLE *    CLOUDY    52  46  82 SW13      29.82F
MARSHALLTOWN   CLOUDY    47  42  83 S21       29.81F
6HR MIN TEMP:  35; 6HR MAX TEMP:  47;

PELLA *        CLOUDY    51  47  84 SW9G17    29.84F
PERRY *        CLOUDY    46  43  87 S17       29.80F
$$

IAZ004>006-015-016-023>025-035-036-221900-
   NORTH CENTRAL IOWA

CITY           SKY/WX    TMP DP  RH WIND       PRES   REMARKS
ALGONA *       FOG       36  36 100 SW14      29.75F VSB 1/2 WCI  27
CLARION *      CLOUDY    39  39 100 SW17      29.76F FOG     WCI  30
ESTHERVILLE    FOG       34  34 100 SW15      29.71F VSB 1   WCI  24
6HR MIN TEMP:  34; 6HR MAX TEMP:  35;

FORT DODGE *   CLOUDY    41  37  87 S13G21    29.78F
MASON CITY     FOG       38  38 100 SW13      29.77F VSB 1/2 WCI  30
6HR MIN TEMP:  34; 6HR MAX TEMP:  38;

FOREST CITY *  SNOW      37  37 100 SW10      29.75F VSB 1/2 WCI  30
IOWA FALLS *   CLOUDY    43  41  93 S13       29.80F FOG
$$

IAZ007>011-017>019-026>030-037>042-050>054-066-221900-
   NORTHEAST IOWA

CITY           SKY/WX    TMP DP  RH WIND       PRES   REMARKS
CEDAR RAPIDS   PTSUNNY   49  45  86 SW17G29   29.85F
6HR MIN TEMP:  35; 6HR MAX TEMP:  50;

CHARLES CITY * FOG       37  37 100 S14       29.78F VSB 0   WCI  29
CLINTON *      CLOUDY    50  46  87 SW14      29.89F
DECORAH *      CLOUDY    37  37 100 S8        29.78F FOG     WCI  31
DUBUQUE        FOG       42  41  96 SW13      29.83F VSB 1/4
6HR MIN TEMP:  32; 6HR MAX TEMP:  41;

MONTICELLO *   PTSUNNY   45  45 100 SW10      29.84F FOG
OELWEIN *      FOG       39  39 100 S12       29.81F VSB 0   WCI  32
WATERLOO       CLOUDY    41  41 100 S10       29.80F FOG
6HR MIN TEMP:  34; 6HR MAX TEMP:  41;

$$

IAZ064-065-067-068-078-221900-
   EAST CENTRAL IOWA

CITY           SKY/WX    TMP DP  RH WIND       PRES   REMARKS
DAVENPORT      CLOUDY    51  46  83 SW17G26   29.87F
6HR MIN TEMP:  38; 6HR MAX TEMP:  51;

IOWA CITY      CLOUDY    47  47 100 SW6       29.89F FOG
6HR MIN TEMP:  35; 6HR MAX TEMP:  47;

MT. PLEASANT * CLOUDY    55  49  81 SW14G23   29.88F
MUSCATINE *    CLOUDY    54  48  82 SW14      29.88F
QUAD CITIES    CLOUDY    51  46  83 SW10G21   29.87F
6HR MIN TEMP:  40; 6HR MAX TEMP:  51;

$$

IAZ062-063-075>077-085>089-095>099-221900-
   SOUTHEAST IOWA

CITY           SKY/WX    TMP DP  RH WIND       PRES   REMARKS
BURLINGTON     CLOUDY    55  47  74 S13       29.89F
6HR MIN TEMP:  43; 6HR MAX TEMP:  55;

FAIRFIELD *    CLOUDY    52  50  93 SW12      29.87F
FORT MADISON * CLOUDY    55  48  76 SW12      29.90F
KEOKUK *       CLOUDY    57  50  77 SW18G25   29.89F
OSKALOOSA *    CLOUDY    49  47  93 SW8       29.86F FOG
CENTERVILLE *  CLOUDY    52  52 100 S10       29.87F
OTTUMWA        CLOUDY    50  48  93 SW8       29.85F FOG
6HR MIN TEMP:  41; 6HR MAX TEMP:  50;

WASHINGTON *   CLOUDY    50  50 100 SW10      29.87F FOG
$$

ABBREVIATIONS USED IN REMARKS
   TC - TEMPERATURES IN CELSIUS
  WCI - WIND CHILL INDEX
   HX - HEAT INDEX
  VSB - VISIBILITY
$$



USA.gov is the U.S. government's official web portal to all federal, state and local government web resources and services.